Weather History for KRDM - January, 2013

Change the Weather History Date:

Monday, January 28, 2013

  Actual Average Record
Temperature  
Mean Temperature 34 °F 34 °F  
Max Temperature 38 °F 44 °F 64 °F (1971)
Min Temperature 29 °F 24 °F -16 °F (1980)
Degree Days  
Heating Degree Days 31 31  
Month to date heating degree days 1011 906  
Since 1 July heating degree days 3569 3746  
Cooling Degree Days 0 0  
Month to date cooling degree days 0 0  
Year to date cooling degree days 0 0  
Moisture  
Dew Point 26 °F    
Average Humidity 76    
Maximum Humidity 92    
Minimum Humidity 59    
Precipitation  
Precipitation 0.00 in 0.02 in 0.48 in (1995)
Month to date precipitation 0.41 0.89  
Year to date precipitation 0.41 0.89  
Sea Level Pressure  
Sea Level Pressure 30.07 in    
Wind  
Wind Speed 13 mph (WNW)    
Max Wind Speed 29 mph    
Max Gust Speed 36 mph    
Visibility 10 miles    
Events      
T = Trace of Precipitation, MM = Missing Value Source: NWS Daily Summary

Daily Weather History Graph

Daily Weather History Graph

Search for Another Location

Airport or City:

Trip Planner

Search our weather history database for the weather conditions in past years. The results will help you decide how hot, cold, wet, or windy it might be!

Date:

Astronomy

Jan. 28, 2013 Rise Set
Actual Time 7:26 AM PST 5:09 PM PST
Civil Twilight 6:55 AM PST 5:40 PM PST
Nautical Twilight 6:20 AM PST 6:15 PM PST
Astronomical Twilight 5:46 AM PST 6:49 PM PST
Moon 7:16 PM PST (1/28) 7:49 AM PST (1/28)
Length of Visible Light 10h 45m
Length of Day
9h 42m
Full, 97% of the Moon is Illuminated
Jan 28
Full
Feb 3
Last Quarter
Feb 9
New
Feb 17
First Quarter
Feb 25
Full

Hourly Weather History & Observations

Time (PST) Temp. Windchill Dew Point Humidity Pressure Visibility Wind Dir Wind Speed Gust Speed Precip Events Conditions
12:56 AM 30.9 °F - 27.0 °F 85% 30.01 in 10.0 mi Calm Calm - N/A   Overcast
2:56 AM 33.1 °F 25.5 °F 25.0 °F 72% 30.03 in 10.0 mi WNW 9.2 mph - N/A   Overcast
3:56 AM 33.1 °F 27.7 °F 25.0 °F 72% 30.04 in 10.0 mi WNW 5.8 mph - N/A   Overcast
4:56 AM 34.0 °F 25.0 °F 24.1 °F 67% 30.05 in 10.0 mi WNW 12.7 mph - N/A   Overcast
5:56 AM 34.0 °F 25.5 °F 23.0 °F 64% 30.06 in 10.0 mi WNW 11.5 mph - N/A   Overcast
6:56 AM 34.0 °F 25.0 °F 23.0 °F 64% 30.07 in 10.0 mi WNW 12.7 mph - N/A   Mostly Cloudy
7:56 AM 33.1 °F 26.9 °F 24.1 °F 70% 30.08 in 10.0 mi NW 6.9 mph - N/A   Mostly Cloudy
8:56 AM 34.0 °F 27.2 °F 25.0 °F 70% 30.09 in 10.0 mi WNW 8.1 mph - N/A   Mostly Cloudy
9:56 AM 35.1 °F 27.4 °F 25.0 °F 67% 30.10 in 10.0 mi West 10.4 mph - N/A   Overcast
10:56 AM 36.0 °F 27.1 °F 24.1 °F 62% 30.11 in 10.0 mi West 13.8 mph - N/A   Partly Cloudy
11:56 AM 37.0 °F 28.9 °F 24.1 °F 59% 30.10 in 10.0 mi West 12.7 mph - N/A   Overcast
12:56 PM 37.0 °F 28.5 °F 25.0 °F 62% 30.09 in 10.0 mi West 13.8 mph - N/A   Scattered Clouds
1:56 PM 37.0 °F 29.3 °F 25.0 °F 62% 30.08 in 10.0 mi West 11.5 mph 19.6 mph N/A   Scattered Clouds
2:56 PM 37.0 °F 28.1 °F 25.0 °F 62% 30.07 in 10.0 mi WNW 15.0 mph - N/A   Overcast
3:56 PM 37.0 °F 28.9 °F 26.1 °F 65% 30.06 in 10.0 mi WNW 12.7 mph - N/A   Scattered Clouds
4:56 PM 37.0 °F 28.1 °F 26.1 °F 65% 30.06 in 10.0 mi WNW 15.0 mph 21.9 mph N/A   Overcast
5:56 PM 37.0 °F 29.3 °F 26.1 °F 65% 30.06 in 10.0 mi WNW 11.5 mph - N/A   Partly Cloudy
6:56 PM 37.0 °F 25.1 °F 26.1 °F 65% 30.06 in 10.0 mi West 26.5 mph 35.7 mph N/A   Clear
7:56 PM 37.0 °F 26.2 °F 27.0 °F 67% 30.07 in 10.0 mi WNW 21.9 mph 27.6 mph N/A   Mostly Cloudy
8:56 PM 36.0 °F 24.2 °F 28.0 °F 73% 30.06 in 10.0 mi WNW 24.2 mph 32.2 mph N/A   Partly Cloudy
9:56 PM 36.0 °F 25.3 °F 28.0 °F 73% 30.06 in 10.0 mi WNW 19.6 mph 31.1 mph N/A   Mostly Cloudy
10:56 PM 35.1 °F 25.2 °F 28.9 °F 78% 30.08 in 10.0 mi WNW 16.1 mph 27.6 mph N/A   Clear
11:56 PM 35.1 °F 23.3 °F 28.0 °F 76% 30.08 in 10.0 mi WNW 23.0 mph 31.1 mph N/A   Partly Cloudy